Date String (YYYY-MM-DD hh:mm:ss) UTC,Instrument flags,absolute air pressure of the measurement (hPa),sample flow rate (lpm),inlet stack bypass flow (lpm),air temperature of the measurement (°C),ambient temperature measured by the external sensor (°C),aerosol sample conditioner tube jacket temperature (°C),OPC LED temperature (°C),internal box temperature (°C),relative humidity of the measurement (%),span deviation,mass concentration of particles derived from Lorenz-Mie calculation of OPC scattering (μg/m³),mass concentration of particles derived from Lorenz-Mie calculation of OPC scattering (μg/m³),mass concentration of particles derived from Lorenz-Mie calculation of OPC scattering (μg/m³)
DateTimeUTC,F1_M11,P_M11,Q1_M11,Q2_M11,T1_M11,T2_M11,T3_M11,T4_M11,T5_M11,U1_M11,ZSPAN_M11,X0_M11,X2_M11,X1_M11
2024-04-10 08:00:00,SystemResetWarning,0828.4,5.01,000.00,025.1,024.4,000.0,033.6,027.0,010.5,0000.0,0009.76,0003.41,0001.50
2024-04-10 08:01:00,SystemResetWarning,0828.4,5.01,000.00,025.1,024.4,000.0,033.6,026.9,010.7,0000.0,0009.94,0003.43,0001.49
2024-04-10 08:02:00,SystemResetWarning,0828.3,5.00,000.00,025.1,024.4,000.0,033.6,026.9,010.8,0000.0,0009.85,0003.44,0001.49
2024-04-10 08:03:00,SystemResetWarning,0828.4,5.00,000.00,025.1,024.4,000.0,033.6,027.0,010.9,0000.0,0009.89,0003.42,0001.45
2024-04-10 08:04:00,SystemResetWarning,0828.3,5.00,000.00,025.1,024.4,000.0,033.6,026.9,011.2,0000.0,0009.74,0003.38,0001.43
2024-04-10 08:05:00,SystemResetWarning,0828.3,5.00,000.00,025.1,024.4,000.0,033.6,027.0,011.4,0000.0,0009.42,0003.33,0001.45
2024-04-10 08:06:00,SystemResetWarning,0828.4,5.00,000.00,025.1,024.4,000.0,033.6,027.0,011.3,0000.0,0009.28,0003.29,0001.46
2024-04-10 08:07:00,SystemResetWarning,0828.4,5.00,000.00,025.1,024.4,000.0,033.6,027.0,011.2,0000.0,0008.46,0003.25,0001.46
2024-04-10 08:08:00,SystemResetWarning,0828.4,5.00,000.00,025.1,024.4,000.0,033.6,027.0,011.3,0000.0,0007.92,0003.24,0001.46
2024-04-10 08:09:00,SystemResetWarning,0828.4,5.00,000.00,025.1,024.4,000.0,033.6,027.0,011.4,0000.0,0007.78,0003.19,0001.43
2024-04-10 08:10:00,SystemResetWarning,0828.4,5.00,000.00,025.1,024.4,000.0,033.6,027.0,011.5,0000.0,0007.82,0003.17,0001.41
2024-04-10 08:11:00,SystemResetWarning,0828.4,5.01,000.00,025.1,024.4,000.0,033.6,027.0,011.7,0000.0,0007.67,0003.16,0001.43
2024-04-10 08:12:00,SystemResetWarning,0828.4,5.00,000.00,025.1,024.4,000.0,033.6,027.0,011.7,0000.0,0007.61,0003.19,0001.46
2024-04-10 08:13:00,SystemResetWarning,0828.4,5.00,000.00,025.1,024.4,000.0,033.6,027.0,011.6,0000.0,0007.76,0003.21,0001.47
2024-04-10 08:14:00,SystemResetWarning,0828.4,5.00,000.00,025.1,024.4,000.0,033.6,027.0,011.6,0000.0,0007.97,0003.25,0001.52
2024-04-10 08:15:00,SystemResetWarning,0828.4,5.00,000.00,025.1,024.4,000.0,033.6,027.0,011.8,0000.0,0008.84,0003.27,0001.54
2024-04-10 08:16:00,SystemResetWarning,0828.4,5.00,000.00,025.1,024.4,000.0,033.7,027.0,011.9,0000.0,0009.16,0003.36,0001.58
2024-04-10 08:17:00,SystemResetWarning,0828.4,5.00,000.00,025.1,024.4,000.0,033.7,027.0,012.0,0000.0,0010.30,0003.49,0001.60
2024-04-10 08:18:00,SystemResetWarning,0828.4,5.00,000.00,025.1,024.4,000.0,033.7,027.0,011.9,0000.0,0010.80,0003.55,0001.61
2024-04-10 08:19:00,SystemResetWarning,0828.4,5.00,000.00,025.1,024.4,000.0,033.7,027.0,011.8,0000.0,0011.00,0003.60,0001.64
2024-04-10 08:20:00,SystemResetWarning,0828.4,5.00,000.00,025.1,024.4,000.0,033.7,027.0,011.9,0000.0,0011.65,0003.73,0001.71
2024-04-10 08:21:00,SystemResetWarning,0828.4,5.00,000.00,025.1,024.4,000.0,033.7,027.0,012.0,0000.0,0012.42,0003.78,0001.75
2024-04-10 08:22:00,SystemResetWarning,0828.4,5.01,000.00,025.1,024.4,000.0,033.7,027.0,012.0,0000.0,0012.57,0003.85,0001.80
2024-04-10 08:23:00,SystemResetWarning,0828.4,5.00,000.00,025.1,024.4,000.0,033.7,027.0,012.0,0000.0,0012.95,0003.89,0001.81
2024-04-10 08:24:00,SystemResetWarning,0828.4,5.00,000.00,025.1,024.4,000.0,033.7,027.0,012.0,0000.0,0013.30,0003.89,0001.83
2024-04-10 08:25:00,SystemResetWarning,0828.4,5.00,000.00,025.1,024.4,000.0,033.7,027.0,011.8,0000.0,0015.25,0003.85,0001.84
2024-04-10 08:26:00,SystemResetWarning,0828.4,5.00,000.00,025.1,024.4,000.0,033.7,027.0,011.8,0000.0,0015.32,0003.87,0001.86
2024-04-10 08:27:00,SystemResetWarning,0828.4,4.99,000.00,025.1,024.4,000.0,033.7,027.0,012.0,0000.0,0015.09,0003.81,0001.86
2024-04-10 08:28:00,SystemResetWarning,0828.4,4.99,000.00,025.1,024.4,000.0,033.7,027.0,012.2,0000.0,0014.55,0003.70,0001.86
2024-04-10 08:29:00,SystemResetWarning,0828.4,5.00,000.00,025.1,024.4,000.0,033.6,027.0,012.1,0000.0,0014.03,0003.67,0001.88
2024-04-10 08:30:00,SystemResetWarning,0828.4,5.01,000.00,025.1,024.4,000.0,033.6,027.0,011.9,0000.0,0013.94,0003.65,0001.87
2024-04-10 08:31:00,SystemResetWarning,0828.4,5.01,000.00,025.1,024.4,000.0,033.6,027.0,011.8,0000.0,0013.69,0003.60,0001.84
2024-04-10 08:32:00,SystemResetWarning,0828.4,5.00,000.00,025.1,024.4,000.0,033.6,026.9,011.8,0000.0,0012.82,0003.60,0001.84
2024-04-10 08:33:00,SystemResetWarning,0828.4,4.99,000.00,025.1,024.4,000.0,033.6,026.9,011.8,0000.0,0012.85,0003.56,0001.83
2024-04-10 08:34:00,SystemResetWarning,0828.4,4.99,000.00,025.1,024.4,000.0,033.6,026.9,011.8,0000.0,0013.21,0003.51,0001.84
2024-04-10 08:35:00,SystemResetWarning,0828.4,5.00,000.00,025.1,024.3,000.0,033.6,026.9,011.8,0000.0,0013.51,0003.56,0001.87
2024-04-10 08:36:00,SystemResetWarning,0828.4,5.00,000.00,025.1,024.3,000.0,033.6,026.9,011.9,0000.0,0012.71,0003.63,0001.88
2024-04-10 08:37:00,SystemResetWarning,0828.4,5.01,000.00,025.1,024.3,000.0,033.6,026.9,012.0,0000.0,0011.67,0003.65,0001.88
2024-04-10 08:38:00,SystemResetWarning,0828.4,5.00,000.00,025.1,024.3,000.0,033.6,026.9,012.0,0000.0,0012.12,0003.71,0001.88
2024-04-10 08:39:00,SystemResetWarning,0828.4,5.00,000.00,025.1,024.3,000.0,033.6,026.9,012.0,0000.0,0012.15,0003.78,0001.89
2024-04-10 08:40:00,SystemResetWarning,0828.4,5.00,000.00,025.1,024.3,000.0,033.6,026.9,012.0,0000.0,0012.24,0003.83,0001.90
2024-04-10 08:41:00,SystemResetWarning,0828.4,5.00,000.00,025.1,024.3,000.0,033.6,026.9,012.1,0000.0,0012.39,0003.88,0001.93
2024-04-10 08:42:00,SystemResetWarning,0828.4,4.99,000.00,025.0,024.3,000.0,033.6,026.9,012.2,0000.0,0013.82,0003.87,0001.94
2024-04-10 08:43:00,SystemResetWarning,0828.4,4.99,000.00,025.0,024.3,000.0,033.6,026.9,012.2,0000.0,0013.82,0003.83,0001.94
2024-04-10 08:44:00,SystemResetWarning,0828.4,5.00,000.00,025.0,024.3,000.0,033.6,026.9,012.2,0000.0,0014.91,0003.82,0001.95
2024-04-10 08:45:00,SystemResetWarning,0828.5,5.01,000.00,025.0,024.3,000.0,033.6,026.9,012.0,0000.0,0015.46,0003.85,0001.97
2024-04-10 08:46:00,SystemResetWarning,0828.6,5.01,000.00,025.0,024.3,000.0,033.6,026.9,012.2,0000.0,0015.89,0003.89,0002.00
2024-04-10 08:47:00,SystemResetWarning,0828.5,4.99,000.00,025.0,024.3,000.0,033.6,026.9,012.3,0000.0,0014.95,0003.89,0002.02
2024-04-10 08:48:00,SystemResetWarning,0828.5,4.99,000.00,025.0,024.3,000.0,033.6,026.8,012.4,0000.0,0015.72,0003.93,0002.05
2024-04-10 08:49:00,SystemResetWarning,0828.6,5.00,000.00,025.0,024.3,000.0,033.6,026.9,012.4,0000.0,0015.53,0003.94,0002.07
2024-04-10 08:50:00,SystemResetWarning,0828.6,5.01,000.00,025.0,024.3,000.0,033.6,026.9,012.3,0000.0,0015.34,0003.95,0002.08
2024-04-10 08:51:00,SystemResetWarning,0828.6,5.01,000.00,025.0,024.3,000.0,033.6,026.9,012.3,0000.0,0015.69,0003.98,0002.10
2024-04-10 08:52:00,SystemResetWarning,0828.6,5.01,000.00,025.0,024.3,000.0,033.5,026.9,012.3,0000.0,0017.00,0003.97,0002.10
2024-04-10 08:53:00,SystemResetWarning,0828.6,5.00,000.00,025.0,024.3,000.0,033.5,026.9,012.3,0000.0,0016.13,0003.97,0002.10
2024-04-10 08:54:00,SystemResetWarning,0828.6,4.99,000.00,025.0,024.3,000.0,033.5,026.8,012.4,0000.0,0016.51,0003.99,0002.11
2024-04-10 08:55:00,SystemResetWarning,0828.6,4.99,000.00,025.0,024.3,000.0,033.5,026.8,012.4,0000.0,0015.72,0004.04,0002.13
2024-04-10 08:56:00,SystemResetWarning,0828.6,5.00,000.00,025.0,024.3,000.0,033.5,026.8,012.4,0000.0,0014.60,0004.08,0002.12
2024-04-10 08:57:00,SystemResetWarning,0828.6,5.00,000.00,025.0,024.3,000.0,033.5,026.8,012.3,0000.0,0013.65,0004.05,0002.07
2024-04-10 08:58:00,SystemResetWarning,0828.6,5.00,000.00,025.0,024.3,000.0,033.5,026.8,012.3,0000.0,0013.42,0004.10,0002.06
2024-04-10 08:59:00,SystemResetWarning,0828.6,5.01,000.00,025.0,024.3,000.0,033.5,026.8,012.4,0000.0,0012.97,0004.12,0002.05
